Change the Weather History Date:

Tuesday, July 30, 2013

  Actual Average Record
Temperature  
Mean Temperature 64 °F -  
Max Temperature 81 °F 82 °F 95 °F (1934)
Min Temperature 48 °F 42 °F 29 °F (1913)
Growing Degree Days 14 (Base 50)    
Moisture  
Dew Point 42 °F    
Average Humidity 54    
Maximum Humidity 95    
Minimum Humidity 15    
Precipitation  
Precipitation 0.00 in - - ()
Sea Level Pressure  
Sea Level Pressure 30.39 in    
Wind  
Wind Speed 4 mph (WSW)    
Max Wind Speed 14 mph    
Max Gust Speed 21 mph    
Visibility 10 miles    
Events      
Averages and records for this station are not official NWS values.
T = Trace of Precipitation, MM = Missing Value Source: NWS Daily Summary

Daily Weather History Graph

Daily Weather History Graph

Search for Another Location

Airport or City:

Trip Planner

Search our weather history database for the weather conditions in past years. The results will help you decide how hot, cold, wet, or windy it might be!

Date:

Astronomy

Jul. 30, 2013 Rise Set
Actual Time 6:03 AM MDT 8:24 PM MDT
Civil Twilight 5:32 AM MDT 8:54 PM MDT
Nautical Twilight 4:54 AM MDT 9:32 PM MDT
Astronomical Twilight 4:12 AM MDT 10:14 PM MDT
Moon 12:22 AM MDT (7/30) 2:47 PM MDT (7/30)
Length of Visible Light 15h 22m
Length of Day
14h 21m
Last Quarter, 40% of the Moon is Illuminated
Jul 30
Last Quarter
Aug 6
New
Aug 14
First Quarter
Aug 20
Full
Aug 28
Last Quarter

Hourly Weather History & Observations

Time (MDT) Temp. Dew Point Humidity Pressure Visibility Wind Dir Wind Speed Gust Speed Precip Events Conditions
12:15 AM 49.8 °F 47.5 °F 92% 30.35 in 10.0 mi Calm Calm - N/A   Mostly Cloudy
12:35 AM 50.4 °F 47.5 °F 90% 30.38 in 10.0 mi SW 8.1 mph - N/A   Mostly Cloudy
12:55 AM 50.7 °F 48.6 °F 92% 30.38 in 10.0 mi NNE 5.8 mph - N/A   Overcast
1:15 AM 50.9 °F 48.6 °F 92% 30.38 in 10.0 mi East 11.5 mph - N/A   Overcast
1:35 AM 52.0 °F 48.2 °F 87% 30.35 in 10.0 mi NE 12.7 mph - N/A   Overcast
1:55 AM 53.8 °F 46.4 °F 76% 30.35 in 10.0 mi ENE 13.8 mph - N/A   Scattered Clouds
2:15 AM 53.2 °F 46.4 °F 78% 30.36 in 10.0 mi Calm Calm - N/A   Clear
2:35 AM 51.8 °F 48.4 °F 88% 30.36 in 10.0 mi NNW 5.8 mph - N/A   Scattered Clouds
2:55 AM 51.4 °F 48.4 °F 89% 30.36 in 10.0 mi Calm Calm - N/A   Overcast
3:15 AM 51.8 °F 48.6 °F 89% 30.36 in 10.0 mi Calm Calm - N/A   Overcast
3:35 AM 51.8 °F 49.1 °F 90% 30.36 in 10.0 mi Calm Calm - N/A   Overcast
3:55 AM 51.8 °F 49.5 °F 92% 30.36 in 10.0 mi Calm Calm - N/A   Overcast
4:15 AM 52.0 °F 49.1 °F 90% 30.36 in 10.0 mi Calm Calm - N/A   Overcast
4:35 AM 51.1 °F 49.1 °F 93% 30.36 in 10.0 mi Calm Calm - N/A   Overcast
4:55 AM 50.9 °F 49.1 °F 94% 30.36 in 10.0 mi Calm Calm - N/A   Overcast
5:15 AM 50.4 °F 48.6 °F 94% 30.37 in 10.0 mi Calm Calm - N/A   Scattered Clouds
5:35 AM 50.0 °F 48.6 °F 95% 30.38 in 10.0 mi Calm Calm - N/A   Clear
5:55 AM 48.7 °F 47.5 °F 95% 30.38 in 10.0 mi ESE 3.5 mph - N/A   Clear
6:15 AM 49.3 °F 47.8 °F 95% 30.38 in 10.0 mi Calm Calm - N/A   Clear
6:35 AM 49.1 °F 47.8 °F 95% 30.39 in 10.0 mi Calm Calm - N/A   Clear
6:55 AM 49.5 °F 48.0 °F 95% 30.40 in 10.0 mi Calm Calm - N/A   Clear
7:15 AM 51.6 °F 48.4 °F 89% 30.41 in 10.0 mi Calm Calm - N/A   Scattered Clouds
7:35 AM 50.4 °F 48.4 °F 93% 30.42 in 10.0 mi Calm Calm - N/A   Scattered Clouds
7:55 AM 52.2 °F 49.1 °F 89% 30.42 in 10.0 mi Calm Calm - N/A   Scattered Clouds
8:15 AM 52.0 °F 49.1 °F 90% 30.43 in 10.0 mi Calm Calm - N/A   Clear
8:35 AM 52.2 °F 49.5 °F 91% 30.44 in 10.0 mi Calm Calm - N/A   Clear
8:55 AM 54.9 °F 49.1 °F 81% 30.44 in 10.0 mi Calm Calm - N/A   Clear
9:15 AM 56.3 °F 48.2 °F 74% 30.44 in 10.0 mi Calm Calm - N/A   Clear
9:35 AM 59.9 °F 48.7 °F 67% 30.44 in 10.0 mi Calm Calm - N/A   Clear
9:55 AM 61.9 °F 50.0 °F 65% 30.43 in 10.0 mi Calm Calm - N/A   Clear
10:15 AM 65.1 °F 46.4 °F 51% 30.43 in 10.0 mi Calm Calm - N/A   Clear
10:35 AM 66.9 °F 43.7 °F 43% 30.43 in 10.0 mi West 3.5 mph - N/A   Clear
10:55 AM 68.7 °F 42.4 °F 39% 30.44 in 10.0 mi SW 4.6 mph - N/A   Clear
11:15 AM 69.3 °F 41.4 °F 36% 30.44 in 10.0 mi WSW 8.1 mph - N/A   Clear
11:35 AM 69.8 °F 41.5 °F 36% 30.44 in 10.0 mi SSW 6.9 mph - N/A   Clear
11:55 AM 71.1 °F 41.5 °F 34% 30.44 in 10.0 mi Calm Calm - N/A   Scattered Clouds
12:15 PM 70.3 °F 41.7 °F 35% 30.43 in 10.0 mi Calm Calm - N/A   Mostly Cloudy
12:35 PM 73.8 °F 40.1 °F 30% 30.42 in 10.0 mi SSW 3.5 mph - N/A   Scattered Clouds
12:55 PM 75.4 °F 38.5 °F 26% 30.41 in 10.0 mi SSW 6.9 mph - N/A   Scattered Clouds
1:15 PM 75.9 °F 38.3 °F 26% 30.41 in 10.0 mi SSW 9.2 mph - N/A   Scattered Clouds
1:35 PM 77.4 °F 38.8 °F 25% 30.40 in 10.0 mi Calm Calm - N/A   Scattered Clouds
1:55 PM 76.6 °F 37.6 °F 24% 30.40 in 10.0 mi West 10.4 mph - N/A   Scattered Clouds
2:15 PM 76.8 °F 34.9 °F 22% 30.39 in 10.0 mi Calm Calm - N/A   Scattered Clouds
2:35 PM 75.7 °F 37.6 °F 25% 30.38 in 10.0 mi North 6.9 mph - N/A   Scattered Clouds
2:55 PM 77.0 °F 37.0 °F 24% 30.38 in 10.0 mi NNE 6.9 mph - N/A   Scattered Clouds
3:15 PM 79.2 °F 34.2 °F 20% 30.38 in 10.0 mi SW 3.5 mph - N/A   Scattered Clouds
3:35 PM 79.9 °F 30.9 °F 17% 30.37 in 10.0 mi WSW 9.2 mph - N/A   Scattered Clouds
3:55 PM 81.1 °F 29.1 °F 15% 30.37 in 10.0 mi SSW 8.1 mph - N/A   Mostly Cloudy
4:15 PM 79.3 °F 30.9 °F 17% 30.36 in 10.0 mi West 8.1 mph - N/A   Scattered Clouds
4:35 PM 81.7 °F 30.0 °F 15% 30.36 in 10.0 mi SSW 9.2 mph 18.4 mph N/A   Scattered Clouds
4:55 PM 81.5 °F 30.6 °F 16% 30.36 in 10.0 mi SW 5.8 mph 17.3 mph N/A   Mostly Cloudy
5:15 PM 81.5 °F 30.6 °F 16% 30.35 in 10.0 mi SSW 12.7 mph 20.7 mph N/A   Scattered Clouds
5:35 PM 81.5 °F 29.7 °F 15% 30.35 in 10.0 mi SW 9.2 mph - N/A   Clear
5:55 PM 81.5 °F 29.1 °F 15% 30.35 in 10.0 mi SW 9.2 mph - N/A   Clear
6:15 PM 79.9 °F 28.2 °F 15% 30.34 in 10.0 mi SW 11.5 mph 17.3 mph N/A   Clear
6:35 PM 80.1 °F 27.5 °F 15% 30.34 in 10.0 mi SW 10.4 mph - N/A   Clear
6:55 PM 79.2 °F 27.3 °F 15% 30.35 in 10.0 mi WSW 12.7 mph 18.4 mph N/A   Clear
7:15 PM 77.2 °F 29.1 °F 17% 30.36 in 10.0 mi West 9.2 mph 16.1 mph N/A   Clear
7:35 PM 75.6 °F 34.7 °F 23% 30.36 in 10.0 mi WNW 4.6 mph - N/A   Clear
7:55 PM 72.7 °F 36.7 °F 27% 30.36 in 10.0 mi WNW 3.5 mph - N/A   Clear
8:15 PM 70.3 °F 38.3 °F 31% 30.37 in 10.0 mi Calm Calm - N/A   Scattered Clouds
8:35 PM 69.6 °F 37.4 °F 31% 30.38 in 10.0 mi Calm Calm - N/A   Scattered Clouds
8:55 PM 69.4 °F 36.9 °F 30% 30.39 in 10.0 mi Calm Calm - N/A   Scattered Clouds
9:15 PM 66.7 °F 36.5 °F 33% 30.39 in 10.0 mi Calm Calm - N/A   Clear
9:35 PM 63.5 °F 41.7 °F 45% 30.40 in 10.0 mi ESE 8.1 mph - N/A   Clear
9:55 PM 63.5 °F 40.1 °F 42% 30.42 in 10.0 mi East 3.5 mph - N/A   Scattered Clouds
10:15 PM 62.1 °F 40.8 °F 46% 30.42 in 10.0 mi Calm Calm - N/A   Scattered Clouds
10:35 PM 63.5 °F 39.9 °F 42% 30.42 in 10.0 mi Calm Calm - N/A   Clear
10:55 PM 60.6 °F 41.7 °F 50% 30.42 in 10.0 mi Calm Calm - N/A   Clear
11:15 PM 60.1 °F 41.5 °F 50% 30.42 in 10.0 mi Calm Calm - N/A   Clear
11:35 PM 58.3 °F 42.3 °F 55% 30.43 in 10.0 mi Calm Calm - N/A   Clear
11:55 PM 58.3 °F 42.1 °F 55% 30.43 in 10.0 mi Calm Calm - N/A   Clear